Torna al catalogo

COSMOS 2439

AttivoNavigazionePO
NORAD 32956·PAYLOAD·🇷🇺 Russia

Lanciato May 23, 2008 da Plesetsk Cosmodrome

Loading…

Prossimi Passaggi (prossime 24 ore)

TLE

AggiornatoSource: Space-Track

Epoca: Sep 14, 2026, 14:10 UTC

1 32956U 08025D   26257.59057297  .00000061  00000-0  36847-3 0  9994
2 32956  82.5057 302.2300 0022023 118.7516 241.5780 12.43071946830827

Traccia COSMOS 2439 in tempo reale con AllMySat

Download on the App Store